Cloud_Cover
20 0 0 0 0 0 0 0 0 0 0 0 0 0 0 0 0 0 0 0 0 0 0 0 0 0 0 0 0 0 0 0 0 0 0 0 0 0 0 0 0 0 0 0 0
43 19 0 0 0 0 0 0 0 0 0 0 0 0 0 0 0 0 0 0 0 0 0 0 0 0 0 0 0 0 0 0 0 0 0 0 0 0 0 0 0 0 0 0 0
100 51 4 0 0 0 0 0 0 0 0 0 0 0 0 0 0 0 0 0 0 0 0 0 0 0 0 0 0 0 0 0 0 0 0 0 0 0 0 0 0 0 0 0 0
100 98 37 21 0 0 0 0 0 0 0 0 0 0 0 0 0 0 0 0 0 0 0 0 0 0 0 0 0 0 0 0 0 0 0 0 0 0 0 0 0 0 0 0 0
94 100 92 18 8 0 0 0 0 0 0 0 0 0 0 0 0 0 0 0 0 0 0 0 0 0 0 0 0 0 0 0 0 0 0 0 0 0 0 0 0 0 0 0 0
0 8 19 20 11 0 0 0 0 0 0 0 0 0 0 0 0 0 0 0 0 0 0 0 0 0 0 0 0 0 0 0 0 0 0 0 0 0 0 0 0 0 0 0 0
0 0 1 4 2 0 0 0 0 0 0 0 0 0 0 0 0 0 0 0 0 0 0 0 0 0 0 0 0 0 0 0 0 0 0 0 0 0 0 0 0 0 0 0 0
0 0 0 0 0 0 0 0 0 0 0 0 0 0 0 0 0 0 0 0 0 0 0 0 0 0 0 0 0 0 0 0 0 1 0 0 0 0 0 0 0 0 0 0 0
0 0 0 0 2 0 0 0 1 0 0 0 0 0 0 0 0 0 0 0 0 0 0 0 0 0 0 0 0 0 0 0 0 0 0 0 0 0 0 1 0 0 0 0 0
5 3 0 0 0 2 4 5 5 5 4 0 1 0 5 4 0 0 0 0 0 0 0 0 0 0 0 0 0 0 0 0 0 0 0 0 0 0 0 1 0 0 0 0 0
0 0 0 0 0 0 0 0 0 1 5 5 47 39 91 19 2 0 0 0 0 0 0 0 0 0 0 0 0 0 0 0 0 0 0 0 0 0 0 0 0 0 0 0 0
0 0 0 0 0 6 15 5 5 22 6 10 5 9 5 5 5 5 4 0 0 0 0 0 0 0 0 0 0 0 0 0 0 0 0 0 0 0 0 0 3 0 0 0 0
0 0 0 0 4 2 0 1 5 13 75 10 5 82 75 31 3 0 0 0 0 0 0 0 0 0 0 0 0 0 0 0 0 0 0 0 0 0 0 2 3 10 19 2 0
0 0 0 0 0 0 0 0 0 4 6 6 5 5 7 5 5 0 0 0 0 0 0 0 0 0 0 0 0 0 0 0 0 0 0 0 1 0 0 2 13 16 95 5 0
0 0 0 0 0 0 0 0 0 0 11 5 5 5 5 5 2 5 0 0 0 0 0 0 0 0 0 0 0 0 0 0 0 0 0 0 2 5 5 28 94 80 73 58 5
3 1 0 0 0 0 0 0 0 0 2 2 2 3 0 0 0 0 0 0 0 0 0 0 0 0 0 0 0 0 0 0 0 0 0 2 4 0 4 3 5 78 48 90 73
7 49 5 3 3 0 0 0 0 0 2 1 0 0 0 0 0 0 0 0 0 0 0 0 0 0 4 1 0 0 0 0 0 0 0 0 0 0 0 26 68 12 50 96 99
5 5 5 5 1 0 4 5 5 0 5 0 0 0 0 0 0 0 0 0 0 2 5 1 0 0 5 4 2 0 0 0 2 5 0 0 0 0 5 5 2 2 2 4 99
6 64 10 5 31 5 5 25 4 0 5 4 0 0 0 0 0 1 1 0 0 2 0 0 0 0 0 0 0 0 0 4 5 6 5 0 2 0 3 1 0 1 56 92 91
5 5 34 46 24 5 5 57 5 1 6 5 2 2 0 5 1 0 0 0 2 5 5 0 0 0 0 0 0 0 0 9 22 31 15 0 9 0 2 33 11 5 0 0 3
4 5 5 23 72 100 25 5 5 53 5 5 5 0 0 0 0 0 0 0 0 0 3 5 0 0 0 5 1 0 4 99 100 92 93 9 27 5 0 0 0 0 0 1 5
5 3 0 1 0 2 1 1 6 39 19 3 0 4 0 2 5 0 0 0 0 5 1 0 4 0 0 5 4 0 0 4 30 5 36 4 25 8 0 0 0 6 99 8 7
11 9 2 1 2 0 2 5 21 5 5 5 0 0 5 3 2 0 0 4 3 3 12 29 5 7 2 13 6 4 34 57 98 75 40 100 2 7 1 0 0 1 74 6 5
2 33 100 73 39 3 2 83 45 94 99 4 5 18 33 2 4 5 37 50 27 90 74 98 71 6 18 3 5 7 3 5 36 76 27 40 3 4 7 1 25 95 33 50 5
4 18 52 89 100 99 20 9 100 88 100 97 50 99 42 83 62 46 42 6 38 100 53 5 85 99 5 5 38 5 64 76 3 7 59 0 0 2 19 72 71 99 41 5 4
0 0 0 0 0 88 100 100 23 5 73 100 100 100 100 32 6 5 65 32 34 99 98 5 5 17 5 61 21 4 75 4 13 0 0 1 0 5 100 100 100 83 20 4 0
0 1 0 0 5 5 61 41 94 90 63 87 94 84 100 100 45 5 5 5 5 5 5 6 17 3 4 5 4 14 26 0 0 0 1 5 20 19 52 100 100 41 5 2 1